| time (UTC) | temp F | wind direction | speed MPH | gust MPH | rain 1hr in | rain 24hr in | rain mn in | humidity % | barometer mb |
| 20260905145055 | 85 | 360 | 4.0 | 8.0 | 0.00 | 0.00 | 0.00 | 46 | 976.1 |
| 20260905144552 | 85 | 360 | 5.0 | 8.0 | 0.00 | 0.00 | 0.00 | 46 | 976.2 |
| 20260905144051 | 84 | 360 | 5.0 | 8.0 | 0.00 | 0.00 | 0.00 | 47 | 976.2 |
| 20260905143551 | 85 | 360 | 5.0 | 8.0 | 0.00 | 0.00 | 0.00 | 46 | 976.3 |
| 20260905143052 | 85 | 360 | 4.0 | 6.0 | 0.00 | 0.00 | 0.00 | 46 | 976.2 |
| 20260905142554 | 85 | 360 | 3.0 | 6.0 | 0.00 | 0.00 | 0.00 | 45 | 976.1 |
| 20260905142053 | 86 | 360 | 4.0 | 6.0 | 0.00 | 0.00 | 0.00 | 44 | 976.0 |
| 20260905141556 | 86 | 360 | 3.0 | 5.0 | 0.00 | 0.00 | 0.00 | 44 | 976.0 |
| 20260905141051 | 85 | 360 | 3.0 | 8.0 | 0.00 | 0.00 | 0.00 | 44 | 976.0 |
| 20260905140551 | 85 | 360 | 4.0 | 9.0 | 0.00 | 0.00 | 0.00 | 43 | 975.8 |
| 20260905140103 | 85 | 360 | 7.0 | 9.0 | 0.00 | 0.00 | 0.00 | 43 | 975.7 |
| 20260905135552 | 85 | 360 | 6.0 | 9.0 | 0.00 | 0.00 | 0.00 | 44 | 975.7 |
| 20260905135052 | 85 | 360 | 6.0 | 9.0 | 0.00 | 0.00 | 0.00 | 44 | 975.7 |
| 20260905134552 | 84 | 360 | 4.0 | 6.0 | 0.00 | 0.00 | 0.00 | 44 | 975.7 |
| 20260905134051 | 84 | 360 | 3.0 | 6.0 | 0.00 | 0.00 | 0.00 | 44 | 975.6 |
| 20260905133553 | 84 | 360 | 4.0 | 6.0 | 0.00 | 0.00 | 0.00 | 44 | 975.6 |
| 20260905133051 | 84 | 360 | 3.0 | 5.0 | 0.00 | 0.00 | 0.00 | 44 | 975.5 |
| 20260905132551 | 84 | 360 | 3.0 | 5.0 | 0.00 | 0.00 | 0.00 | 43 | 975.4 |
| 20260905132052 | 84 | 360 | 3.0 | 6.0 | 0.00 | 0.00 | 0.00 | 43 | 975.4 |
| 20260905131605 | 84 | 360 | 4.0 | 6.0 | 0.00 | 0.00 | 0.00 | 43 | 975.3 |
| 20260905131051 | 84 | 360 | 4.0 | 6.0 | 0.00 | 0.00 | 0.00 | 43 | 975.3 |
| 20260905130552 | 84 | 360 | 3.0 | 4.0 | 0.00 | 0.00 | 0.00 | 43 | 975.3 |
| 20260905130052 | 84 | 360 | 2.0 | 4.0 | 0.00 | 0.00 | 0.00 | 43 | 975.3 |
| 20260905125552 | 85 | 360 | 3.0 | 5.0 | 0.00 | 0.00 | 0.00 | 43 | 975.2 |
| 20260905125052 | 85 | 360 | 4.0 | 6.0 | 0.00 | 0.00 | 0.00 | 42 | 975.2 |
| 20260905124552 | 84 | 360 | 4.0 | 6.0 | 0.00 | 0.00 | 0.00 | 43 | 975.1 |
| 20260905124053 | 84 | 360 | 2.0 | 6.0 | 0.00 | 0.00 | 0.00 | 43 | 975.1 |
| 20260905123551 | 84 | 360 | 4.0 | 5.0 | 0.00 | 0.00 | 0.00 | 43 | 975.1 |
| 20260905123051 | 84 | 360 | 0.0 | 4.0 | 0.00 | 0.00 | 0.00 | 43 | 975.1 |
| 20260905122552 | 84 | 360 | 1.0 | 8.0 | 0.00 | 0.00 | 0.00 | 43 | 974.9 |
| 20260905122052 | 84 | 360 | 4.0 | 8.0 | 0.00 | 0.00 | 0.00 | 42 | 974.9 |
| 20260905121553 | 85 | 360 | 4.0 | 9.0 | 0.00 | 0.00 | 0.00 | 41 | 974.9 |
| 20260905121052 | 86 | 360 | 1.0 | 5.0 | 0.00 | 0.00 | 0.00 | 41 | 974.8 |
| 20260905120555 | 86 | 360 | 1.0 | 3.0 | 0.00 | 0.00 | 0.00 | 41 | 974.8 |
| 20260905120058 | 86 | 360 | 0.0 | 2.0 | 0.00 | 0.00 | 0.00 | 40 | 974.6 |
| 20260905115554 | 87 | 360 | 0.0 | 8.0 | 0.00 | 0.00 | 0.00 | 40 | 974.7 |
| 20260905115054 | 87 | 360 | 2.0 | 8.0 | 0.00 | 0.00 | 0.00 | 40 | 974.6 |
| 20260905114552 | 87 | 360 | 1.0 | 4.0 | 0.00 | 0.00 | 0.00 | 39 | 974.6 |
| 20260905114051 | 87 | 360 | 1.0 | 5.0 | 0.00 | 0.00 | 0.00 | 38 | 974.6 |
| 20260905113552 | 87 | 360 | 3.0 | 5.0 | 0.00 | 0.00 | 0.00 | 39 | 974.5 |
| 20260905113052 | 87 | 360 | 2.0 | 5.0 | 0.00 | 0.00 | 0.00 | 39 | 974.6 |
| 20260905112553 | 87 | 360 | 1.0 | 4.0 | 0.00 | 0.00 | 0.00 | 39 | 974.6 |
| 20260905112052 | 87 | 360 | 2.0 | 5.0 | 0.00 | 0.00 | 0.00 | 39 | 974.7 |
| 20260905111608 | 87 | 360 | 2.0 | 5.0 | 0.00 | 0.00 | 0.00 | 39 | 974.7 |
| 20260905111052 | 87 | 360 | 2.0 | 8.0 | 0.00 | 0.00 | 0.00 | 40 | 974.6 |
| 20260905110556 | 87 | 360 | 3.0 | 8.0 | 0.00 | 0.00 | 0.00 | 40 | 974.6 |
| 20260905110057 | 87 | 360 | 2.0 | 8.0 | 0.00 | 0.00 | 0.00 | 39 | 974.6 |
| 20260905105552 | 87 | 360 | 4.0 | 6.0 | 0.00 | 0.00 | 0.00 | 40 | 974.5 |
| 20260905105052 | 87 | 360 | 3.0 | 6.0 | 0.00 | 0.00 | 0.00 | 40 | 974.5 |
| 20260905104551 | 87 | 360 | 4.0 | 6.0 | 0.00 | 0.00 | 0.00 | 40 | 974.6 |
| 20260905104051 | 87 | 360 | 3.0 | 5.0 | 0.00 | 0.00 | 0.00 | 39 | 974.6 |
| 20260905103552 | 88 | 360 | 1.0 | 4.0 | 0.00 | 0.00 | 0.00 | 39 | 974.5 |
| 20260905103053 | 88 | 360 | 1.0 | 6.0 | 0.00 | 0.00 | 0.00 | 39 | 974.4 |
| 20260905102551 | 88 | 360 | 3.0 | 9.0 | 0.00 | 0.00 | 0.00 | 39 | 974.4 |
| 20260905102051 | 89 | 360 | 5.0 | 12.0 | 0.00 | 0.00 | 0.00 | 37 | 974.4 |
| 20260905101552 | 89 | 360 | 6.0 | 12.0 | 0.00 | 0.00 | 0.00 | 37 | 974.4 |
| 20260905101051 | 89 | 360 | 8.0 | 12.0 | 0.00 | 0.00 | 0.00 | 37 | 974.3 |
| 20260905100551 | 89 | 360 | 7.0 | 12.0 | 0.00 | 0.00 | 0.00 | 37 | 974.3 |
| 20260905100052 | 89 | 360 | 8.0 | 11.0 | 0.00 | 0.00 | 0.00 | 37 | 974.3 |
| 20260905095551 | 89 | 360 | 7.0 | 11.0 | 0.00 | 0.00 | 0.00 | 37 | 974.3 |
| 20260905095053 | 89 | 360 | 7.0 | 11.0 | 0.00 | 0.00 | 0.00 | 37 | 974.3 |
| 20260905094552 | 89 | 360 | 6.0 | 10.0 | 0.00 | 0.00 | 0.00 | 37 | 974.4 |
| 20260905094051 | 89 | 360 | 6.0 | 11.0 | 0.00 | 0.00 | 0.00 | 37 | 974.3 |
| 20260905093551 | 89 | 360 | 6.0 | 11.0 | 0.00 | 0.00 | 0.00 | 37 | 974.3 |
| 20260905093052 | 89 | 360 | 6.0 | 11.0 | 0.00 | 0.00 | 0.00 | 37 | 974.4 |
| 20260905092553 | 89 | 360 | 5.0 | 10.0 | 0.00 | 0.00 | 0.00 | 38 | 974.4 |
| 20260905092054 | 89 | 360 | 4.0 | 8.0 | 0.00 | 0.00 | 0.00 | 38 | 974.4 |
| 20260905091553 | 89 | 360 | 5.0 | 8.0 | 0.00 | 0.00 | 0.00 | 38 | 974.3 |
| 20260905091051 | 89 | 360 | 5.0 | 8.0 | 0.00 | 0.00 | 0.00 | 37 | 974.3 |
| 20260905090552 | 89 | 360 | 4.0 | 8.0 | 0.00 | 0.00 | 0.00 | 37 | 974.4 |
| 20260905090052 | 90 | 360 | 5.0 | 9.0 | 0.00 | 0.00 | 0.00 | 37 | 974.3 |
| 20260905085552 | 89 | 360 | 4.0 | 9.0 | 0.00 | 0.00 | 0.00 | 37 | 974.3 |
| 20260905085051 | 89 | 360 | 4.0 | 8.0 | 0.00 | 0.00 | 0.00 | 38 | 974.4 |
| 20260905084600 | 89 | 360 | 4.0 | 6.0 | 0.00 | 0.00 | 0.00 | 38 | 974.4 |
| 20260905084051 | 89 | 360 | 4.0 | 5.0 | 0.00 | 0.00 | 0.00 | 39 | 974.5 |
| 20260905083551 | 89 | 360 | 3.0 | 5.0 | 0.00 | 0.00 | 0.00 | 39 | 974.4 |
| 20260905083052 | 89 | 360 | 2.0 | 4.0 | 0.00 | 0.00 | 0.00 | 38 | 974.5 |
| 20260905082553 | 89 | 360 | 1.0 | 5.0 | 0.00 | 0.00 | 0.00 | 38 | 974.5 |
| 20260905082052 | 89 | 360 | 3.0 | 8.0 | 0.00 | 0.00 | 0.00 | 38 | 974.5 |
| 20260905081552 | 90 | 360 | 4.0 | 8.0 | 0.00 | 0.00 | 0.00 | 38 | 974.5 |
| 20260905081052 | 90 | 360 | 5.0 | 8.0 | 0.00 | 0.00 | 0.00 | 38 | 974.4 |
| 20260905080552 | 91 | 360 | 3.0 | 8.0 | 0.00 | 0.00 | 0.00 | 37 | 974.3 |
| 20260905080054 | 92 | 360 | 4.0 | 9.0 | 0.00 | 0.00 | 0.00 | 36 | 974.3 |
| 20260905075554 | 92 | 360 | 5.0 | 12.0 | 0.00 | 0.00 | 0.00 | 35 | 974.2 |
| 20260905075054 | 92 | 360 | 5.0 | 13.0 | 0.00 | 0.00 | 0.00 | 34 | 974.3 |
| 20260905074557 | 92 | 360 | 6.0 | 13.0 | 0.00 | 0.00 | 0.00 | 34 | 974.2 |
| 20260905074052 | 92 | 360 | 7.0 | 16.0 | 0.00 | 0.00 | 0.00 | 34 | 974.1 |
| 20260905073551 | 92 | 360 | 8.0 | 16.0 | 0.00 | 0.00 | 0.00 | 34 | 974.1 |
| 20260905073102 | 92 | 360 | 10.0 | 16.0 | 0.00 | 0.00 | 0.00 | 34 | 974.0 |
| 20260905072552 | 93 | 360 | 9.0 | 19.0 | 0.00 | 0.00 | 0.00 | 34 | 974.0 |
| 20260905072051 | 93 | 360 | 10.0 | 17.0 | 0.00 | 0.00 | 0.00 | 34 | 974.0 |
| 20260905071551 | 93 | 360 | 12.0 | 19.0 | 0.00 | 0.00 | 0.00 | 34 | 974.0 |
| 20260905071054 | 93 | 360 | 13.0 | 21.0 | 0.00 | 0.00 | 0.00 | 34 | 974.0 |
| 20260905070553 | 93 | 360 | 13.0 | 21.0 | 0.00 | 0.00 | 0.00 | 33 | 974.0 |
| 20260905070051 | 93 | 360 | 13.0 | 20.0 | 0.00 | 0.00 | 0.00 | 33 | 973.9 |
| 20260905065552 | 93 | 360 | 14.0 | 20.0 | 0.00 | 0.00 | 0.00 | 34 | 974.0 |
| 20260905065055 | 93 | 360 | 13.0 | 18.0 | 0.00 | 0.00 | 0.00 | 34 | 973.9 |
| 20260905064552 | 94 | 360 | 10.0 | 17.0 | 0.00 | 0.00 | 0.00 | 34 | 973.9 |
| 20260905064055 | 94 | 360 | 11.0 | 18.0 | 0.00 | 0.00 | 0.00 | 33 | 974.0 |
| 20260905063551 | 94 | 360 | 10.0 | 19.0 | 0.00 | 0.00 | 0.00 | 33 | 974.1 |
| 20260905063054 | 94 | 360 | 10.0 | 19.0 | 0.00 | 0.00 | 0.00 | 33 | 974.0 |
| 20260905062554 | 94 | 360 | 12.0 | 19.0 | 0.00 | 0.00 | 0.00 | 33 | 973.9 |
| 20260905062055 | 94 | 360 | 12.0 | 22.0 | 0.00 | 0.00 | 0.00 | 33 | 973.8 |
| 20260905061551 | 94 | 360 | 12.0 | 22.0 | 0.00 | 0.00 | 0.00 | 33 | 973.9 |
| 20260905061051 | 94 | 360 | 12.0 | 21.0 | 0.00 | 0.00 | 0.00 | 33 | 973.9 |
| 20260905060553 | 94 | 360 | 14.0 | 21.0 | 0.00 | 0.00 | 0.00 | 33 | 973.8 |
| 20260905060051 | 94 | 360 | 12.0 | 20.0 | 0.00 | 0.00 | 0.00 | 32 | 973.8 |
| 20260905055551 | 94 | 360 | 12.0 | 21.0 | 0.00 | 0.00 | 0.00 | 32 | 973.9 |
| 20260905055055 | 94 | 360 | 14.0 | 21.0 | 0.00 | 0.00 | 0.00 | 32 | 973.9 |
| 20260905054552 | 94 | 360 | 11.0 | 16.0 | 0.00 | 0.00 | 0.00 | 31 | 973.9 |
| 20260905054051 | 95 | 360 | 9.0 | 19.0 | 0.00 | 0.00 | 0.00 | 30 | 973.9 |
| 20260905053551 | 95 | 360 | 13.0 | 22.0 | 0.00 | 0.00 | 0.00 | 30 | 973.8 |
| 20260905053130 | 95 | 360 | 13.0 | 22.0 | 0.00 | 0.00 | 0.00 | 31 | 973.8 |
| 20260905052554 | 95 | 360 | 10.0 | 19.0 | 0.00 | 0.00 | 0.00 | 30 | 973.9 |
| 20260905052051 | 95 | 360 | 12.0 | 19.0 | 0.00 | 0.00 | 0.00 | 29 | 973.7 |
| 20260905051552 | 95 | 360 | 10.0 | 19.0 | 0.00 | 0.00 | 0.00 | 29 | 973.8 |
| 20260905051051 | 95 | 360 | 11.0 | 18.0 | 0.00 | 0.00 | 0.00 | 29 | 973.7 |
| 20260905050551 | 95 | 360 | 11.0 | 17.0 | 0.00 | 0.00 | 0.00 | 29 | 973.8 |
| 20260905050052 | 96 | 360 | 10.0 | 19.0 | 0.00 | 0.00 | 0.00 | 28 | 973.8 |
| 20260905045555 | 96 | 360 | 11.0 | 18.0 | 0.00 | 0.00 | 0.00 | 28 | 973.8 |
| 20260905045051 | 96 | 360 | 10.0 | 16.0 | 0.00 | 0.00 | 0.00 | 28 | 973.8 |
| 20260905044552 | 96 | 360 | 10.0 | 15.0 | 0.00 | 0.00 | 0.00 | 28 | 973.7 |
| 20260905044052 | 96 | 360 | 10.0 | 17.0 | 0.00 | 0.00 | 0.00 | 28 | 973.7 |
| 20260905043552 | 96 | 360 | 11.0 | 17.0 | 0.00 | 0.00 | 0.00 | 28 | 973.7 |
| 20260905043051 | 96 | 360 | 11.0 | 16.0 | 0.00 | 0.00 | 0.00 | 28 | 973.7 |
| 20260905042552 | 96 | 360 | 10.0 | 16.0 | 0.00 | 0.00 | 0.00 | 27 | 973.6 |
| 20260905042055 | 96 | 360 | 10.0 | 16.0 | 0.00 | 0.00 | 0.00 | 27 | 973.6 |
| 20260905041552 | 96 | 360 | 11.0 | 16.0 | 0.00 | 0.00 | 0.00 | 27 | 973.6 |
| 20260905041051 | 96 | 360 | 11.0 | 16.0 | 0.00 | 0.00 | 0.00 | 27 | 973.5 |
| 20260905040554 | 97 | 360 | 11.0 | 16.0 | 0.00 | 0.00 | 0.00 | 27 | 973.4 |
| 20260905040051 | 97 | 360 | 11.0 | 16.0 | 0.00 | 0.00 | 0.00 | 27 | 973.3 |
| 20260905035551 | 97 | 360 | 11.0 | 18.0 | 0.00 | 0.00 | 0.00 | 27 | 973.4 |
| 20260905035052 | 97 | 360 | 9.0 | 18.0 | 0.00 | 0.00 | 0.00 | 27 | 973.3 |
| 20260905034552 | 97 | 360 | 11.0 | 18.0 | 0.00 | 0.00 | 0.00 | 27 | 973.2 |
| 20260905034051 | 97 | 360 | 11.0 | 17.0 | 0.00 | 0.00 | 0.00 | 27 | 973.2 |
| 20260905033555 | 97 | 360 | 11.0 | 16.0 | 0.00 | 0.00 | 0.00 | 28 | 973.1 |
| 20260905033059 | 97 | 360 | 11.0 | 16.0 | 0.00 | 0.00 | 0.00 | 28 | 973.1 |
| 20260905032552 | 97 | 360 | 9.0 | 17.0 | 0.00 | 0.00 | 0.00 | 28 | 973.1 |
| 20260905032054 | 97 | 360 | 11.0 | 16.0 | 0.00 | 0.00 | 0.00 | 28 | 973.0 |
| 20260905031553 | 97 | 360 | 11.0 | 16.0 | 0.00 | 0.00 | 0.00 | 28 | 972.8 |
| 20260905031052 | 97 | 360 | 10.0 | 14.0 | 0.00 | 0.00 | 0.00 | 29 | 972.9 |
| 20260905030551 | 97 | 360 | 7.0 | 14.0 | 0.00 | 0.00 | 0.00 | 29 | 972.7 |
| 20260905030052 | 98 | 360 | 10.0 | 14.0 | 0.00 | 0.00 | 0.00 | 29 | 972.6 |
| 20260905025552 | 98 | 360 | 9.0 | 14.0 | 0.00 | 0.00 | 0.00 | 29 | 972.6 |
| 20260905025051 | 98 | 360 | 10.0 | 14.0 | 0.00 | 0.00 | 0.00 | 29 | 972.5 |
| 20260905024602 | 98 | 360 | 8.0 | 14.0 | 0.00 | 0.00 | 0.00 | 28 | 972.3 |
| 20260905024051 | 98 | 360 | 8.0 | 15.0 | 0.00 | 0.00 | 0.00 | 28 | 972.3 |
| 20260905023552 | 98 | 360 | 9.0 | 14.0 | 0.00 | 0.00 | 0.00 | 28 | 972.3 |
| 20260905023055 | 99 | 360 | 8.0 | 14.0 | 0.00 | 0.00 | 0.00 | 28 | 972.2 |
| 20260905022551 | 99 | 360 | 6.0 | 16.0 | 0.00 | 0.00 | 0.00 | 27 | 972.1 |
| 20260905022051 | 99 | 360 | 9.0 | 16.0 | 0.00 | 0.00 | 0.00 | 27 | 972.0 |
| 20260905021552 | 99 | 13 | 11.0 | 16.0 | 0.00 | 0.00 | 0.00 | 26 | 972.1 |
| 20260905021051 | 99 | 360 | 10.0 | 16.0 | 0.00 | 0.00 | 0.00 | 26 | 972.1 |
| 20260905020551 | 99 | 19 | 8.0 | 15.0 | 0.00 | 0.00 | 0.00 | 26 | 971.9 |
| 20260905020104 | 99 | 19 | 9.0 | 15.0 | 0.00 | 0.00 | 0.00 | 26 | 971.9 |
| 20260905015552 | 100 | 360 | 6.0 | 13.0 | 0.00 | 0.00 | 0.00 | 25 | 971.9 |
| 20260905015052 | 100 | 360 | 6.0 | 18.0 | 0.00 | 0.00 | 0.00 | 24 | 971.9 |
| 20260905014553 | 100 | 360 | 11.0 | 18.0 | 0.00 | 0.00 | 0.00 | 24 | 971.8 |
| 20260905014051 | 100 | 360 | 7.0 | 16.0 | 0.00 | 0.00 | 0.00 | 24 | 971.9 |
| 20260905013551 | 100 | 360 | 11.0 | 15.0 | 0.00 | 0.00 | 0.00 | 24 | 971.8 |
| 20260905013051 | 100 | 12 | 6.0 | 18.0 | 0.00 | 0.00 | 0.00 | 24 | 971.8 |
| 20260905012551 | 100 | 18 | 10.0 | 18.0 | 0.00 | 0.00 | 0.00 | 24 | 971.9 |
| 20260905012052 | 100 | 140 | 9.0 | 20.0 | 0.00 | 0.00 | 0.00 | 23 | 971.8 |
| 20260905011552 | 100 | 116 | 12.0 | 21.0 | 0.00 | 0.00 | 0.00 | 24 | 971.6 |
| 20260905011051 | 101 | 107 | 13.0 | 21.0 | 0.00 | 0.00 | 0.00 | 24 | 971.7 |
| 20260905010552 | 101 | 74 | 10.0 | 16.0 | 0.00 | 0.00 | 0.00 | 24 | 971.6 |
| 20260905010051 | 101 | 92 | 9.0 | 16.0 | 0.00 | 0.00 | 0.00 | 24 | 971.6 |
| 20260905005551 | 101 | 105 | 10.0 | 18.0 | 0.00 | 0.00 | 0.00 | 24 | 971.6 |
| 20260905005051 | 101 | 90 | 13.0 | 18.0 | 0.00 | 0.00 | 0.00 | 24 | 971.6 |
| 20260905004552 | 101 | 149 | 8.0 | 16.0 | 0.00 | 0.00 | 0.00 | 24 | 971.5 |
| 20260905004051 | 101 | 94 | 9.0 | 16.0 | 0.00 | 0.00 | 0.00 | 24 | 971.6 |
| 20260905003552 | 101 | 123 | 11.0 | 15.0 | 0.00 | 0.00 | 0.00 | 25 | 971.7 |
| 20260905003052 | 101 | 107 | 10.0 | 16.0 | 0.00 | 0.00 | 0.00 | 24 | 971.5 |
| 20260905002556 | 101 | 98 | 12.0 | 19.0 | 0.00 | 0.00 | 0.00 | 24 | 971.6 |
| 20260905002052 | 102 | 98 | 10.0 | 19.0 | 0.00 | 0.00 | 0.00 | 24 | 971.6 |
| 20260905001552 | 101 | 136 | 9.0 | 18.0 | 0.00 | 0.00 | 0.00 | 23 | 971.6 |
| 20260905001051 | 101 | 103 | 10.0 | 16.0 | 0.00 | 0.00 | 0.00 | 24 | 971.5 |
| 20260905000552 | 101 | 78 | 10.0 | 21.0 | 0.00 | 0.00 | 0.00 | 24 | 971.6 |
| 20260905000052 | 101 | 97 | 12.0 | 21.0 | 0.00 | 0.00 | 0.00 | 24 | 971.6 |
| 20260904235553 | 101 | 92 | 12.0 | 16.0 | 0.00 | 0.00 | 0.00 | 25 | 971.6 |
| 20260904235051 | 102 | 116 | 10.0 | 17.0 | 0.00 | 0.00 | 0.00 | 25 | 971.6 |
| 20260904234556 | 102 | 92 | 9.0 | 18.0 | 0.00 | 0.00 | 0.00 | 25 | 971.7 |
| 20260904234051 | 102 | 102 | 11.0 | 17.0 | 0.00 | 0.00 | 0.00 | 25 | 971.7 |
| 20260904233554 | 102 | 110 | 8.0 | 15.0 | 0.00 | 0.00 | 0.00 | 25 | 971.6 |
| 20260904233053 | 102 | 110 | 11.0 | 20.0 | 0.00 | 0.00 | 0.00 | 25 | 971.7 |
| 20260904232552 | 102 | 74 | 10.0 | 20.0 | 0.00 | 0.00 | 0.00 | 25 | 971.7 |
| 20260904232052 | 102 | 182 | 4.0 | 10.0 | 0.00 | 0.00 | 0.00 | 25 | 971.9 |
| 20260904231552 | 102 | 75 | 2.0 | 12.0 | 0.00 | 0.00 | 0.00 | 26 | 971.9 |
| 20260904231051 | 102 | 101 | 5.0 | 13.0 | 0.00 | 0.00 | 0.00 | 26 | 971.9 |
| 20260904230553 | 101 | 119 | 7.0 | 16.0 | 0.00 | 0.00 | 0.00 | 26 | 971.9 |
| 20260904230053 | 101 | 86 | 10.0 | 18.0 | 0.00 | 0.00 | 0.00 | 26 | 972.0 |
| 20260904225551 | 102 | 89 | 8.0 | 18.0 | 0.00 | 0.00 | 0.00 | 26 | 972.1 |
| 20260904225054 | 102 | 85 | 5.0 | 9.0 | 0.00 | 0.00 | 0.00 | 26 | 972.1 |
| 20260904224603 | 102 | 138 | 4.0 | 7.0 | 0.00 | 0.00 | 0.00 | 27 | 972.1 |
| 20260904224051 | 102 | 157 | 1.0 | 5.0 | 0.00 | 0.00 | 0.00 | 27 | 972.0 |
| 20260904223551 | 101 | 130 | 1.0 | 11.0 | 0.00 | 0.00 | 0.00 | 27 | 972.3 |
| 20260904223053 | 101 | 120 | 6.0 | 12.0 | 0.00 | 0.00 | 0.00 | 28 | 972.3 |
| 20260904222552 | 100 | 115 | 7.0 | 17.0 | 0.00 | 0.00 | 0.00 | 28 | 972.4 |
| 20260904222052 | 101 | 101 | 11.0 | 19.0 | 0.00 | 0.00 | 0.00 | 27 | 972.4 |
| 20260904221557 | 102 | 126 | 10.0 | 19.0 | 0.00 | 0.00 | 0.00 | 26 | 972.4 |
| 20260904221052 | 102 | 67 | 6.0 | 12.0 | 0.00 | 0.00 | 0.00 | 26 | 972.5 |
| 20260904220552 | 102 | 90 | 8.0 | 15.0 | 0.00 | 0.00 | 0.00 | 26 | 972.5 |
| 20260904220055 | 101 | 50 | 8.0 | 15.0 | 0.00 | 0.00 | 0.00 | 27 | 972.5 |
| 20260904215552 | 101 | 101 | 8.0 | 13.0 | 0.00 | 0.00 | 0.00 | 27 | 972.7 |
| 20260904215051 | 101 | 138 | 5.0 | 14.0 | 0.00 | 0.00 | 0.00 | 30 | 972.8 |
| 20260904214552 | 101 | 134 | 8.0 | 16.0 | 0.00 | 0.00 | 0.00 | 29 | 972.7 |
| 20260904214052 | 101 | 211 | 6.0 | 16.0 | 0.00 | 0.00 | 0.00 | 30 | 972.7 |
| 20260904213551 | 101 | 176 | 3.0 | 11.0 | 0.00 | 0.00 | 0.00 | 29 | 972.7 |
| 20260904213051 | 101 | 72 | 2.0 | 11.0 | 0.00 | 0.00 | 0.00 | 29 | 972.8 |
| 20260904212552 | 100 | 242 | 2.0 | 5.0 | 0.00 | 0.00 | 0.00 | 30 | 972.9 |
| 20260904212051 | 100 | 125 | 0.0 | 12.0 | 0.00 | 0.00 | 0.00 | 30 | 973.1 |
| 20260904211553 | 100 | 105 | 4.0 | 12.0 | 0.00 | 0.00 | 0.00 | 30 | 973.2 |
| 20260904211051 | 101 | 74 | 5.0 | 11.0 | 0.00 | 0.00 | 0.00 | 30 | 973.1 |
| 20260904210551 | 101 | 98 | 6.0 | 11.0 | 0.00 | 0.00 | 0.00 | 30 | 973.2 |
| 20260904210055 | 101 | 180 | 6.0 | 9.0 | 0.00 | 0.00 | 0.00 | 30 | 973.2 |
| 20260904205551 | 101 | 139 | 3.0 | 8.0 | 0.00 | 0.00 | 0.00 | 30 | 973.4 |
| 20260904205051 | 101 | 89 | 4.0 | 10.0 | 0.00 | 0.00 | 0.00 | 31 | 973.4 |
| 20260904204551 | 101 | 109 | 1.0 | 12.0 | 0.00 | 0.00 | 0.00 | 31 | 973.4 |
| 20260904204051 | 100 | 46 | 7.0 | 14.0 | 0.00 | 0.00 | 0.00 | 31 | 973.6 |
| 20260904203551 | 100 | 63 | 7.0 | 15.0 | 0.00 | 0.00 | 0.00 | 32 | 973.6 |
| 20260904203051 | 100 | 106 | 6.0 | 18.0 | 0.00 | 0.00 | 0.00 | 31 | 973.7 |
| 20260904202551 | 100 | 24 | 8.0 | 16.0 | 0.00 | 0.00 | 0.00 | 31 | 973.8 |
| 20260904202051 | 101 | 75 | 6.0 | 15.0 | 0.00 | 0.00 | 0.00 | 31 | 973.9 |
| 20260904201609 | 102 | 22 | 8.0 | 14.0 | 0.00 | 0.00 | 0.00 | 30 | 973.8 |
| 20260904201051 | 102 | 68 | 2.0 | 8.0 | 0.00 | 0.00 | 0.00 | 31 | 973.8 |
| 20260904200551 | 101 | 12 | 5.0 | 8.0 | 0.00 | 0.00 | 0.00 | 32 | 974.0 |
| 20260904200051 | 100 | 36 | 2.0 | 6.0 | 0.00 | 0.00 | 0.00 | 32 | 974.0 |
| 20260904195552 | 99 | 75 | 2.0 | 10.0 | 0.00 | 0.00 | 0.00 | 33 | 974.2 |
| 20260904195051 | 99 | 70 | 6.0 | 10.0 | 0.00 | 0.00 | 0.00 | 33 | 974.3 |
| 20260904194603 | 100 | 113 | 2.0 | 8.0 | 0.00 | 0.00 | 0.00 | 33 | 974.3 |
| 20260904194052 | 100 | 231 | 2.0 | 9.0 | 0.00 | 0.00 | 0.00 | 35 | 974.3 |
| 20260904193551 | 99 | 242 | 3.0 | 10.0 | 0.00 | 0.00 | 0.00 | 37 | 974.3 |
| 20260904193051 | 98 | 10 | 1.0 | 10.0 | 0.00 | 0.00 | 0.00 | 38 | 974.4 |
| 20260904192551 | 97 | 305 | 1.0 | 15.0 | 0.00 | 0.00 | 0.00 | 39 | 974.5 |
| 20260904192051 | 98 | 305 | 8.0 | 15.0 | 0.00 | 0.00 | 0.00 | 38 | 974.6 |
| 20260904191556 | 99 | 47 | 2.0 | 9.0 | 0.00 | 0.00 | 0.00 | 37 | 974.7 |
| 20260904191051 | 99 | 243 | 5.0 | 14.0 | 0.00 | 0.00 | 0.00 | 37 | 974.8 |
| 20260904190551 | 99 | 72 | 6.0 | 14.0 | 0.00 | 0.00 | 0.00 | 36 | 974.8 |
| 20260904190051 | 98 | 26 | 2.0 | 6.0 | 0.00 | 0.00 | 0.00 | 37 | 974.9 |
| 20260904185555 | 97 | 286 | 3.0 | 9.0 | 0.00 | 0.00 | 0.00 | 37 | 975.0 |
| 20260904185054 | 96 | 360 | 5.0 | 10.0 | 0.00 | 0.00 | 0.00 | 38 | 975.1 |
| 20260904184555 | 97 | 78 | 5.0 | 10.0 | 0.00 | 0.00 | 0.00 | 38 | 975.1 |
| 20260904184051 | 96 | 157 | 3.0 | 8.0 | 0.00 | 0.00 | 0.00 | 41 | 975.2 |
| 20260904183554 | 96 | 171 | 2.0 | 9.0 | 0.00 | 0.00 | 0.00 | 42 | 975.5 |
| 20260904183051 | 96 | 159 | 5.0 | 9.0 | 0.00 | 0.00 | 0.00 | 41 | 975.4 |
| 20260904182552 | 95 | 240 | 3.0 | 8.0 | 0.00 | 0.00 | 0.00 | 42 | 975.5 |
| 20260904182052 | 95 | 244 | 3.0 | 9.0 | 0.00 | 0.00 | 0.00 | 43 | 975.6 |
| 20260904181551 | 95 | 341 | 4.0 | 14.0 | 0.00 | 0.00 | 0.00 | 43 | 975.7 |
| 20260904181051 | 95 | 321 | 8.0 | 14.0 | 0.00 | 0.00 | 0.00 | 43 | 975.9 |
| 20260904180551 | 95 | 360 | 0.0 | 9.0 | 0.00 | 0.00 | 0.00 | 44 | 975.9 |
| 20260904180052 | 94 | 84 | 5.0 | 11.0 | 0.00 | 0.00 | 0.00 | 44 | 976.0 |
| 20260904175551 | 94 | 82 | 7.0 | 17.0 | 0.00 | 0.00 | 0.00 | 45 | 975.9 |
| 20260904175051 | 94 | 63 | 3.0 | 17.0 | 0.00 | 0.00 | 0.00 | 45 | 975.8 |
| 20260904174551 | 94 | 309 | 7.0 | 13.0 | 0.00 | 0.00 | 0.00 | 46 | 975.9 |
| 20260904174051 | 94 | 309 | 8.0 | 14.0 | 0.00 | 0.00 | 0.00 | 46 | 976.0 |
| 20260904173551 | 94 | 9 | 2.0 | 9.0 | 0.00 | 0.00 | 0.00 | 46 | 976.1 |
| 20260904173111 | 94 | 307 | 2.0 | 10.0 | 0.00 | 0.00 | 0.00 | 46 | 976.2 |
| 20260904172551 | 93 | 283 | 1.0 | 8.0 | 0.00 | 0.00 | 0.00 | 47 | 976.2 |
| 20260904172050 | 93 | 317 | 3.0 | 10.0 | 0.00 | 0.00 | 0.00 | 48 | 976.2 |
| 20260904171605 | 92 | 323 | 3.0 | 11.0 | 0.00 | 0.00 | 0.00 | 49 | 976.1 |
| 20260904171052 | 92 | 323 | 7.0 | 14.0 | 0.00 | 0.00 | 0.00 | 49 | 976.0 |
| 20260904170553 | 92 | 305 | 8.0 | 14.0 | 0.00 | 0.00 | 0.00 | 50 | 976.1 |
| 20260904170051 | 91 | 286 | 7.0 | 14.0 | 0.00 | 0.00 | 0.00 | 50 | 975.9 |
| 20260904165551 | 91 | 347 | 5.0 | 13.0 | 0.00 | 0.00 | 0.00 | 50 | 975.9 |
| 20260904165050 | 91 | 17 | 5.0 | 14.0 | 0.00 | 0.00 | 0.00 | 51 | 976.0 |
| 20260904164556 | 91 | 360 | 7.0 | 14.0 | 0.00 | 0.00 | 0.00 | 51 | 976.0 |
| 20260904164052 | 91 | 317 | 8.0 | 11.0 | 0.00 | 0.00 | 0.00 | 52 | 975.9 |
| 20260904163552 | 90 | 360 | 6.0 | 15.0 | 0.00 | 0.00 | 0.00 | 53 | 975.9 |
| 20260904163054 | 90 | 360 | 8.0 | 15.0 | 0.00 | 0.00 | 0.00 | 53 | 975.8 |
| 20260904162551 | 90 | 360 | 8.0 | 14.0 | 0.00 | 0.00 | 0.00 | 54 | 975.8 |
| 20260904162050 | 90 | 360 | 9.0 | 15.0 | 0.00 | 0.00 | 0.00 | 55 | 975.8 |
| 20260904161551 | 89 | 18 | 9.0 | 15.0 | 0.00 | 0.00 | 0.00 | 56 | 975.9 |
| 20260904161051 | 89 | 17 | 11.0 | 15.0 | 0.00 | 0.00 | 0.00 | 55 | 975.8 |
| 20260904160551 | 89 | 9 | 11.0 | 15.0 | 0.00 | 0.00 | 0.00 | 56 | 975.8 |
| 20260904160051 | 89 | 351 | 9.0 | 15.0 | 0.00 | 0.00 | 0.00 | 57 | 975.7 |
| 20260904155550 | 88 | 360 | 10.0 | 18.0 | 0.00 | 0.00 | 0.00 | 58 | 975.7 |
| 20260904155051 | 88 | 360 | 10.0 | 18.0 | 0.00 | 0.00 | 0.00 | 59 | 975.7 |
| 20260904154551 | 87 | 11 | 12.0 | 18.0 | 0.00 | 0.00 | 0.00 | 60 | 975.7 |
| 20260904154053 | 87 | 360 | 14.0 | 21.0 | 0.00 | 0.00 | 0.00 | 60 | 975.5 |
| 20260904153551 | 87 | 10 | 13.0 | 21.0 | 0.00 | 0.00 | 0.00 | 61 | 975.5 |
| 20260904153053 | 87 | 360 | 13.0 | 17.0 | 0.00 | 0.00 | 0.00 | 61 | 975.5 |
| 20260904152552 | 87 | 12 | 10.0 | 16.0 | 0.00 | 0.00 | 0.00 | 62 | 975.5 |
| 20260904152051 | 86 | 19 | 10.0 | 16.0 | 0.00 | 0.00 | 0.00 | 63 | 975.5 |
| 20260904151551 | 85 | 360 | 10.0 | 14.0 | 0.00 | 0.00 | 0.00 | 64 | 975.5 |
| 20260904151051 | 85 | 360 | 10.0 | 14.0 | 0.00 | 0.00 | 0.00 | 65 | 975.4 |
| 20260904150552 | 85 | 11 | 10.0 | 14.0 | 0.00 | 0.00 | 0.00 | 65 | 975.6 |
| 20260904150106 | 84 | 360 | 9.0 | 14.0 | 0.00 | 0.00 | 0.00 | 65 | 975.6 |
| 20260904145551 | 84 | 19 | 10.0 | 14.0 | 0.00 | 0.00 | 0.00 | 66 | 975.6 |